Regional Weather Roundup
Issued by NWS

Home | Current Version | Previous Version | Graphics & Text | Print | Product List | Glossary On
Versions: 1 2 3 4 5 6 7 8 9 10 11 12 13 14 15 16 17 18 19 20 21 22 23 24 25 26 27 28 29 30 31 32 33 34 35 36 37 38 39 40 41 42 43 44 45 46 47 48 49 50
000
ASUS43 KMKX 152100
RWRWI

WISCONSIN REGIONAL WEATHER ROUNDUP
NATIONAL WEATHER SERVICE MILWAUKEE/SULLIVAN WI
400 PM CDT MON SEP 15 2014

NOTE: "FAIR" INDICATES FEW OR NO CLOUDS BELOW 12,000 FEET WITH NO
SIGNIFICANT WEATHER AND/OR OBSTRUCTIONS TO VISIBILITY.

WIZ001-002-006>008-014>016-023>028-152200-
NORTHWEST WISCONSIN

CITY           SKY/WX    TMP DP  RH WIND       PRES   REMARKS
SUPERIOR ARPT  FAIR      59  36  41 N9G17     30.16F
ASHLAND        CLOUDY    55  37  50 NW10      30.17S
HAYWARD        PTSUNNY   57  34  41 VRB7      30.16F
SIREN          FAIR      57  34  41 NW10      30.18F
RICE LAKE      CLOUDY    60  36  41 NW10      30.19S
LADYSMITH      FAIR      58  37  47 NW13      30.17S
EAU CLAIRE     NOT AVBL
MENOMONIE      CLOUDY    60  37  42 NW9       30.18S
NEW RICHMOND   PTSUNNY   59  35  41 N7        30.19F
OSCEOLA        PTSUNNY   59  36  43 NW7       30.22S
$$

WIZ003>005-009-010-017-018-152200-
NORTH CENTRAL WISCONSIN

CITY           SKY/WX    TMP DP  RH WIND       PRES   REMARKS
WOODRUFF       PTSUNNY   59  38  44 W10       30.12F
RHINELANDER    FAIR      59  38  45 NW8       30.12F
EAGLE RIVER    FAIR      58  35  41 NW13G18   30.10F
LAND O LAKES   FAIR      57  34  41 NW14G20   30.11F
PHILLIPS       PTSUNNY   58  37  45 W7        30.13S
TOMAHAWK       PTSUNNY   58  37  45 N7        30.12F
MEDFORD        FAIR      57  38  49 NW10      30.13F
MERRILL        CLOUDY    57  41  55 NW6       30.12S
$$

WIZ029-030-035-036-043>047-152200-
CENTRAL WISCONSIN

CITY           SKY/WX    TMP DP  RH WIND       PRES   REMARKS
WAUSAU         FAIR      58  41  53 NW9       30.10S
MOSINEE        PTSUNNY   57  45  62 NW9       30.13S
MARSHFIELD     CLOUDY    58  43  57 NW12      30.13S
STEVENS POINT  PTSUNNY   58  41  53 NW3       30.12S
WAUPACA        FAIR      60  50  68 W8        30.12F
WAUTOMA        NOT AVBL
WISC RAPIDS    LGT RAIN  59  46  62 W7        30.13F
CAMP DOUGLAS   NOT AVBL
$$

WIZ011>013-019>022-031-037>040-048>050-152200-
NORTHEAST WISCONSIN

CITY           SKY/WX    TMP DP  RH WIND       PRES   REMARKS
ANTIGO         CLOUDY    56  43  62 N12       30.10F
STURGEON BAY   FAIR      57  46  67 W8        30.09S
GREEN BAY      PTSUNNY   58  50  75 SW6       30.11S
MANITOWOC      NOT AVBL
APPLETON       PTSUNNY   55  48  76 W9        30.12F
CLINTONVILLE   PTSUNNY   61  41  48 NW5       30.10S
OSHKOSH        CLOUDY    58  51  78 W9        30.11F
$$

WIZ032>034-041-042-053>061-152200-
SOUTHWEST WISCONSIN

CITY           SKY/WX    TMP DP  RH WIND       PRES   REMARKS
LA CROSSE      FAIR      62  48  60 W9        30.16F
SPARTA         PTSUNNY   60  46  59 NW8       30.16F
VIROQUA        FAIR      59  45  60 N10       30.16F
BOSCOBEL       PTSUNNY   59  46  62 N9        30.17S
PRAIRIE DU CHI FAIR      59  44  57 N10G18    30.16S
PLATTEVILLE    CLOUDY    57  51  80 CALM      30.15S
$$

WIZ056-057-062-063-064-067-068-152200-
SOUTH CENTRAL WISCONSIN

CITY           SKY/WX    TMP DP  RH WIND       PRES   REMARKS
BARABOO/DELLS  CLOUDY    55  46  71 NW10      30.14S
LONE ROCK      PTSUNNY   62  46  55 N13       30.15S
WATERTOWN      LGT RAIN  52  52 100 NW6       30.12S
MADISON        PTSUNNY   58  49  72 N12       30.13F
MIDDLETON      CLOUDY    56  49  76 N7        30.14S
MONROE         LGT RAIN  52  50  93 N10       30.12F
JANESVILLE     DRIZZLE   54  48  82 NE6       30.11F
$$

WIZ051-052-058>065-066-070>072-152200-
SOUTHEAST WISCONSIN

CITY           SKY/WX    TMP DP  RH WIND       PRES   REMARKS
MILWAUKEE      CLOUDY    54  52  93 N7        30.11F
WAUKESHA       CLOUDY    52  48  87 NW5       30.12F
MILWAUKEE/TIMM LGT RAIN  54  50  87 N6        30.12F
RACINE         LGT RAIN  54  51  90 N9        30.12S FOG
BURLINGTON     CLOUDY    52  50  93 N7        30.12R
KENOSHA        RAIN      56  54  93 N15       30.11R FOG
FOND DU LAC    CLOUDY    55  50  83 W5        30.12F
SHEBOYGAN      LGT RAIN  54  50  86 W6        30.12S
WEST BEND      LGT RAIN  52  48  87 NW5       30.12F
JUNEAU         LGT RAIN  53  49  87 N6        30.13F
$$

LSZ147-162-152200-
LAKE SUPERIOR

STATION/POSITION TIME  TEMP    WIND        PRES    WAVE
                       AIR SEA DIR/SP/G            HT/PER
                 (UTC) (F)     (DEG/KT/KT) (MB)    (FT/S)
W MID LAKE BUOY  1950   50 48  240/ 12/ 14 1020.0F   1/ 4
DEVILS ISLAND    2000   53     240/  9/ 11 1021.1F
PORT WING        2000   55     280/ 12/ 13 1021.7F
SAXON HARBOR     2000   56     320/ 10/ 14 1021.3S
$$

LMZ867-665-643>646-152200-
LAKE MICHIGAN

STATION/POSITION TIME  TEMP    WIND        PRES    WAVE
                       AIR SEA DIR/SP/G            HT/PER
                 (UTC) (F)     (DEG/KT/KT) (MB)    (FT/S)
N MID LAKE BUOY  1950   56 60  240/  8/  8 1019.0F   1/ 5
NORTHPORT PIER   2000   57     140/  5/  9 1018.6F
KEWAUNEE LAKESHO 2000   56     260/  4/  7 1018.3F
SHEBOYGAN LAKESH 2000   53 48     CALM     1020.3F
PORT WASHINGTON  2040   54     350/  2/  3 1020.3F
ATWATER BUOY     2000   54     350/ 14/ 16 1020.8R
MILWAUKEE LAKESH 2000   54     350/ 10/ 13   N/A
S MID LAKE BUOY  1950   61 64  290/  4/  6 1018.8F   1/ 3
KENOSHA   LAKESH 2000   55      10/  8/  9 1019.0S
$$

TC  - TEMPERATURE IN CELSIUS
VSB - VISIBILITY IN STATUTE MILES
WCI - WIND CHILL INDEX
HX  - HEAT INDEX



USA.gov is the U.S. government's official web portal to all federal, state and local government web resources and services.